Time,TemperatureF,DewpointF,PressureIn,WindDirection,WindDirectionDegrees,WindSpeedMPH,WindSpeedGustMPH,Humidity,HourlyPrecipIn,Conditions,Clouds,dailyrainin,SoftwareType,DateUTC
2013-06-30 00:02:00,65.0,55.0,29.81,North,355,3.0,9.0,71,0.00,,,0.02,,2013-06-30 04:02:00,
2013-06-30 00:12:00,65.0,55.0,29.81,North,355,3.0,9.0,71,0.00,,,0.02,,2013-06-30 04:12:00,
2013-06-30 00:22:00,65.0,55.0,29.82,North,355,4.0,8.0,71,0.00,,,0.01,,2013-06-30 04:22:00,
2013-06-30 00:33:00,65.0,56.0,29.81,North,359,3.0,8.0,72,0.00,,,0.01,,2013-06-30 04:33:00,
2013-06-30 00:43:00,65.0,56.0,29.81,North,359,3.0,8.0,72,0.00,,,0.01,,2013-06-30 04:43:00,
2013-06-30 00:53:00,64.0,55.0,29.82,North,4,6.0,7.0,73,0.00,,,0.01,,2013-06-30 04:53:00,
2013-06-30 01:02:00,64.0,56.0,29.82,North,356,3.0,9.0,74,0.00,,,0.01,,2013-06-30 05:02:00,
2013-06-30 01:12:00,63.0,55.0,29.82,North,2,4.0,9.0,74,0.00,,,0.01,,2013-06-30 05:12:00,
2013-06-30 01:22:00,63.0,55.0,29.82,North,2,3.0,9.0,74,0.00,,,0.01,,2013-06-30 05:22:00,
2013-06-30 01:34:00,63.0,55.0,29.82,North,359,3.0,6.0,74,0.00,,,0.01,,2013-06-30 05:34:00,
2013-06-30 01:43:00,62.0,54.0,29.83,NNW,341,4.0,6.0,75,0.00,,,0.01,,2013-06-30 05:43:00,
2013-06-30 01:53:00,62.0,54.0,29.83,North,8,3.0,6.0,76,0.00,,,0.01,,2013-06-30 05:53:00,
2013-06-30 02:02:00,62.0,55.0,29.83,North,1,3.0,6.0,78,0.00,,,0.01,,2013-06-30 06:02:00,
2013-06-30 02:23:00,62.0,56.0,29.83,North,0,3.0,7.0,80,0.00,,,0.01,,2013-06-30 06:23:00,
2013-06-30 02:34:00,61.0,55.0,29.83,North,1,6.0,7.0,81,0.00,,,0.01,,2013-06-30 06:34:00,
2013-06-30 02:43:00,61.0,55.0,29.83,North,0,3.0,7.0,82,0.00,,,0.01,,2013-06-30 06:43:00,
2013-06-30 02:53:00,61.0,55.0,29.83,North,0,3.0,6.0,82,0.00,,,0.01,,2013-06-30 06:53:00,
2013-06-30 03:02:00,61.0,56.0,29.83,North,0,2.0,6.0,83,0.00,,,0.01,,2013-06-30 07:02:00,
2013-06-30 03:12:00,61.0,56.0,29.83,North,0,2.0,6.0,83,0.00,,,0.01,,2013-06-30 07:12:00,
2013-06-30 03:22:00,60.0,55.0,29.84,North,0,0.0,0.0,84,0.00,,,0.01,,2013-06-30 07:22:00,
2013-06-30 03:33:00,60.0,55.0,29.84,North,0,0.0,0.0,84,0.00,,,0.01,,2013-06-30 07:33:00,
2013-06-30 03:44:00,59.0,54.0,29.84,North,0,0.0,0.0,84,0.00,,,0.01,,2013-06-30 07:44:00,
2013-06-30 03:53:00,59.0,54.0,29.84,North,0,0.0,2.0,85,0.00,,,0.01,,2013-06-30 07:53:00,
2013-06-30 04:02:00,59.0,54.0,29.84,North,0,0.0,2.0,84,0.00,,,0.01,,2013-06-30 08:02:00,
2013-06-30 04:12:00,59.0,54.0,29.84,North,0,0.0,2.0,84,0.00,,,0.01,,2013-06-30 08:12:00,
2013-06-30 04:22:00,58.0,54.0,29.84,North,0,0.0,2.0,87,0.00,,,0.01,,2013-06-30 08:22:00,
2013-06-30 04:33:00,58.0,54.0,29.84,North,0,0.0,1.0,88,0.00,,,0.01,,2013-06-30 08:33:00,
2013-06-30 04:42:00,57.0,53.0,29.85,North,0,1.0,3.0,87,0.00,,,0.01,,2013-06-30 08:42:00,
2013-06-30 04:53:00,57.0,52.0,29.85,North,0,1.0,3.0,82,0.00,,,0.01,,2013-06-30 08:53:00,
2013-06-30 05:01:00,58.0,51.0,29.85,North,0,0.0,3.0,78,0.00,,,0.01,,2013-06-30 09:01:00,
2013-06-30 05:12:00,58.0,51.0,29.85,North,0,0.0,3.0,78,0.00,,,0.01,,2013-06-30 09:12:00,
2013-06-30 05:23:00,58.0,52.0,29.86,North,0,0.0,1.0,79,0.00,,,0.01,,2013-06-30 09:23:00,
2013-06-30 05:34:00,58.0,52.0,29.86,North,0,0.0,1.0,79,0.00,,,0.01,,2013-06-30 09:34:00,
2013-06-30 05:43:00,56.0,50.0,29.86,North,0,0.0,3.0,80,0.00,,,0.01,,2013-06-30 09:43:00,
2013-06-30 05:53:00,56.0,50.0,29.87,North,0,0.0,2.0,80,0.00,,,0.01,,2013-06-30 09:53:00,
2013-06-30 06:02:00,56.0,50.0,29.87,North,0,0.0,2.0,79,0.00,,,0.01,,2013-06-30 10:02:00,
2013-06-30 06:11:00,56.0,49.0,29.87,North,0,1.0,3.0,78,0.00,,,0.01,,2013-06-30 10:11:00,
2013-06-30 06:22:00,56.0,49.0,29.88,North,0,0.0,2.0,78,0.00,,,0.00,,2013-06-30 10:22:00,
2013-06-30 06:33:00,56.0,49.0,29.88,North,0,0.0,2.0,78,0.00,,,0.00,,2013-06-30 10:33:00,
2013-06-30 06:42:00,56.0,50.0,29.88,North,3,0.0,4.0,79,0.00,,,0.00,,2013-06-30 10:42:00,
2013-06-30 06:53:00,56.0,50.0,29.88,North,3,0.0,4.0,79,0.00,,,0.00,,2013-06-30 10:53:00,
2013-06-30 07:02:00,58.0,50.0,29.89,North,6,2.0,5.0,75,0.00,,,0.00,,2013-06-30 11:02:00,
2013-06-30 07:11:00,58.0,50.0,29.90,North,6,3.0,5.0,75,0.00,,,0.00,,2013-06-30 11:11:00,
2013-06-30 07:22:00,59.0,50.0,29.90,North,6,2.0,5.0,73,0.00,,,0.00,,2013-06-30 11:22:00,
2013-06-30 07:33:00,60.0,51.0,29.90,North,9,3.0,4.0,72,0.00,,,0.00,,2013-06-30 11:33:00,
2013-06-30 07:43:00,61.0,51.0,29.90,North,9,3.0,6.0,70,0.00,,,0.00,,2013-06-30 11:43:00,
2013-06-30 07:53:00,62.0,51.0,29.90,North,9,3.0,5.0,68,0.00,,,0.00,,2013-06-30 11:53:00,
2013-06-30 08:02:00,63.0,52.0,29.91,North,5,3.0,6.0,67,0.00,,,0.00,,2013-06-30 12:02:00,
2013-06-30 08:11:00,63.0,52.0,29.91,NNE,22,3.0,6.0,67,0.00,,,0.00,,2013-06-30 12:11:00,
2013-06-30 08:24:00,64.0,52.0,29.91,NNE,15,3.0,6.0,64,0.00,,,0.00,,2013-06-30 12:24:00,
2013-06-30 08:33:00,64.0,52.0,29.91,NNE,21,1.0,6.0,64,0.00,,,0.00,,2013-06-30 12:33:00,
2013-06-30 08:43:00,65.0,51.0,29.91,NNE,21,3.0,6.0,61,0.00,,,0.00,,2013-06-30 12:43:00,
2013-06-30 08:52:00,66.0,53.0,29.92,NE,37,3.0,6.0,63,0.00,,,0.00,,2013-06-30 12:52:00,
2013-06-30 09:02:00,66.0,52.0,29.92,NNE,13,6.0,6.0,60,0.00,,,0.00,,2013-06-30 13:02:00,
2013-06-30 09:12:00,66.0,52.0,29.92,NNE,12,3.0,6.0,60,0.00,,,0.00,,2013-06-30 13:12:00,
2013-06-30 09:22:00,66.0,51.0,29.93,NNE,33,4.0,6.0,59,0.00,,,0.00,,2013-06-30 13:22:00,
2013-06-30 09:34:00,67.0,51.0,29.93,NNE,25,3.0,8.0,57,0.00,,,0.00,,2013-06-30 13:34:00,
2013-06-30 09:43:00,68.0,52.0,29.94,NE,43,4.0,8.0,56,0.00,,,0.00,,2013-06-30 13:43:00,
2013-06-30 09:53:00,68.0,52.0,29.94,North,0,3.0,8.0,57,0.00,,,0.00,,2013-06-30 13:53:00,
2013-06-30 10:02:00,69.0,52.0,29.94,NE,43,2.0,6.0,55,0.00,,,0.00,,2013-06-30 14:02:00,
2013-06-30 10:11:00,69.0,52.0,29.94,NE,43,2.0,6.0,55,0.00,,,0.00,,2013-06-30 14:11:00,
2013-06-30 10:22:00,69.0,52.0,29.94,NE,43,2.0,6.0,55,0.00,,,0.00,,2013-06-30 14:22:00,
2013-06-30 10:33:00,69.0,52.0,29.94,NE,43,2.0,6.0,55,0.00,,,0.00,,2013-06-30 14:33:00,
2013-06-30 10:44:00,70.0,50.0,29.95,North,11,7.0,10.0,50,0.00,,,0.00,,2013-06-30 14:44:00,
2013-06-30 10:52:00,70.0,49.0,29.94,NNE,33,4.0,7.0,48,0.00,,,0.00,,2013-06-30 14:52:00,
2013-06-30 11:02:00,70.0,49.0,29.94,NNE,33,4.0,7.0,48,0.00,,,0.00,,2013-06-30 15:02:00,
2013-06-30 11:12:00,71.0,51.0,29.95,North,2,4.0,9.0,50,0.00,,,0.00,,2013-06-30 15:12:00,
2013-06-30 11:23:00,71.0,50.0,29.95,NNE,14,6.0,10.0,48,0.00,,,0.00,,2013-06-30 15:23:00,
2013-06-30 11:34:00,72.0,51.0,29.96,NNE,17,3.0,10.0,47,0.00,,,0.00,,2013-06-30 15:34:00,
2013-06-30 11:44:00,72.0,51.0,29.96,North,355,6.0,10.0,48,0.00,,,0.00,,2013-06-30 15:44:00,
2013-06-30 11:53:00,72.0,50.0,29.95,NE,38,7.0,10.0,46,0.00,,,0.00,,2013-06-30 15:53:00,
2013-06-30 12:01:00,72.0,51.0,29.96,North,359,6.0,10.0,47,0.00,,,0.00,,2013-06-30 16:01:00,
2013-06-30 12:11:00,72.0,49.0,29.96,NNE,33,4.0,10.0,44,0.00,,,0.00,,2013-06-30 16:11:00,
2013-06-30 12:21:00,73.0,50.0,29.96,NNE,12,6.0,13.0,45,0.00,,,0.00,,2013-06-30 16:21:00,
2013-06-30 12:34:00,74.0,52.0,29.96,NW,320,4.0,8.0,46,0.00,,,0.00,,2013-06-30 16:34:00,
2013-06-30 12:44:00,74.0,52.0,29.96,NW,320,4.0,8.0,46,0.00,,,0.00,,2013-06-30 16:44:00,
2013-06-30 12:53:00,73.0,53.0,29.97,North,4,4.0,11.0,49,0.00,,,0.00,,2013-06-30 16:53:00,
2013-06-30 13:02:00,72.0,53.0,29.97,NW,321,6.0,15.0,52,0.00,,,0.00,,2013-06-30 17:02:00,
2013-06-30 13:11:00,72.0,53.0,29.97,NW,321,6.0,15.0,52,0.00,,,0.00,,2013-06-30 17:11:00,
2013-06-30 13:23:00,71.0,52.0,29.97,NNW,341,11.0,16.0,52,0.00,,,0.00,,2013-06-30 17:23:00,
2013-06-30 13:34:00,71.0,51.0,29.97,North,349,5.0,15.0,49,0.00,,,0.00,,2013-06-30 17:34:00,
2013-06-30 13:43:00,71.0,51.0,29.97,North,358,8.0,15.0,49,0.00,,,0.00,,2013-06-30 17:43:00,
2013-06-30 13:53:00,71.0,50.0,29.98,North,3,6.0,15.0,48,0.00,,,0.00,,2013-06-30 17:53:00,
2013-06-30 14:02:00,71.0,49.0,29.98,NNW,341,10.0,14.0,45,0.00,,,0.00,,2013-06-30 18:02:00,
2013-06-30 14:12:00,71.0,49.0,29.98,NNW,341,10.0,14.0,45,0.00,,,0.00,,2013-06-30 18:12:00,
2013-06-30 14:22:00,72.0,46.0,29.98,NNW,334,7.0,13.0,39,0.00,,,0.00,,2013-06-30 18:22:00,
2013-06-30 14:34:00,72.0,48.0,29.98,NNE,16,7.0,13.0,43,0.00,,,0.00,,2013-06-30 18:34:00,
2013-06-30 14:43:00,72.0,48.0,29.98,North,354,11.0,14.0,43,0.00,,,0.00,,2013-06-30 18:43:00,
2013-06-30 14:53:00,72.0,48.0,29.98,NNW,340,10.0,14.0,43,0.00,,,0.00,,2013-06-30 18:53:00,
2013-06-30 15:01:00,72.0,48.0,29.98,North,351,5.0,14.0,42,0.00,,,0.00,,2013-06-30 19:01:00,
2013-06-30 15:11:00,73.0,49.0,29.98,North,11,9.0,15.0,42,0.00,,,0.00,,2013-06-30 19:11:00,
2013-06-30 15:22:00,73.0,47.0,29.98,NNW,346,9.0,15.0,40,0.00,,,0.00,,2013-06-30 19:22:00,
2013-06-30 15:33:00,73.0,47.0,29.98,NNW,346,9.0,15.0,40,0.00,,,0.00,,2013-06-30 19:33:00,
2013-06-30 15:43:00,73.0,46.0,29.98,NNW,348,8.0,15.0,38,0.00,,,0.00,,2013-06-30 19:43:00,
2013-06-30 15:53:00,73.0,46.0,29.98,NNW,348,8.0,15.0,38,0.00,,,0.00,,2013-06-30 19:53:00,
2013-06-30 16:02:00,73.0,45.0,29.98,NNW,328,8.0,15.0,37,0.00,,,0.00,,2013-06-30 20:02:00,
2013-06-30 16:12:00,74.0,45.0,29.98,NNW,345,7.0,15.0,36,0.00,,,0.00,,2013-06-30 20:12:00,
2013-06-30 16:22:00,75.0,45.0,29.98,North,350,10.0,13.0,34,0.00,,,0.00,,2013-06-30 20:22:00,
2013-06-30 16:34:00,75.0,45.0,29.98,North,350,10.0,13.0,34,0.00,,,0.00,,2013-06-30 20:34:00,
2013-06-30 16:42:00,75.0,45.0,29.98,NNW,345,9.0,14.0,34,0.00,,,0.00,,2013-06-30 20:42:00,
2013-06-30 16:52:00,75.0,43.0,29.97,North,353,7.0,16.0,32,0.00,,,0.00,,2013-06-30 20:52:00,
2013-06-30 17:01:00,74.0,43.0,29.98,NNW,345,8.0,16.0,33,0.00,,,0.00,,2013-06-30 21:01:00,
2013-06-30 17:11:00,75.0,41.0,29.98,NNW,343,3.0,16.0,30,0.00,,,0.00,,2013-06-30 21:11:00,
2013-06-30 17:22:00,75.0,41.0,29.98,NNW,344,12.0,13.0,30,0.00,,,0.00,,2013-06-30 21:22:00,
2013-06-30 17:34:00,75.0,42.0,29.98,NNW,330,5.0,14.0,31,0.00,,,0.00,,2013-06-30 21:34:00,
2013-06-30 17:43:00,75.0,42.0,29.98,NNW,344,8.0,16.0,31,0.00,,,0.00,,2013-06-30 21:43:00,
2013-06-30 17:53:00,75.0,41.0,29.98,NNW,346,8.0,18.0,30,0.00,,,0.00,,2013-06-30 21:53:00,
2013-06-30 18:01:00,75.0,42.0,29.98,NNW,339,8.0,17.0,31,0.00,,,0.00,,2013-06-30 22:01:00,
2013-06-30 18:11:00,75.0,44.0,29.98,NNW,338,6.0,17.0,33,0.00,,,0.00,,2013-06-30 22:11:00,
2013-06-30 18:22:00,74.0,41.0,29.98,North,351,8.0,17.0,31,0.00,,,0.00,,2013-06-30 22:22:00,
2013-06-30 18:34:00,74.0,45.0,29.98,North,2,8.0,12.0,36,0.00,,,0.00,,2013-06-30 22:34:00,
2013-06-30 18:43:00,74.0,45.0,29.98,North,353,4.0,12.0,35,0.00,,,0.00,,2013-06-30 22:43:00,
2013-06-30 18:53:00,74.0,45.0,29.98,North,354,4.0,12.0,36,0.00,,,0.00,,2013-06-30 22:53:00,
2013-06-30 19:02:00,74.0,45.0,29.98,NNW,339,8.0,12.0,35,0.00,,,0.00,,2013-06-30 23:02:00,
2013-06-30 19:11:00,74.0,46.0,29.99,North,349,8.0,13.0,37,0.00,,,0.00,,2013-06-30 23:11:00,
2013-06-30 19:22:00,74.0,46.0,29.99,North,358,3.0,10.0,37,0.00,,,0.00,,2013-06-30 23:22:00,
2013-06-30 19:33:00,74.0,46.0,29.99,North,358,3.0,10.0,37,0.00,,,0.00,,2013-06-30 23:33:00,
2013-06-30 19:44:00,73.0,47.0,30.00,NNW,331,4.0,12.0,40,0.00,,,0.00,,2013-06-30 23:44:00,
2013-06-30 19:53:00,73.0,47.0,30.00,NNW,331,4.0,12.0,40,0.00,,,0.00,,2013-06-30 23:53:00,
2013-06-30 20:01:00,72.0,48.0,30.00,NNW,331,3.0,10.0,43,0.00,,,0.00,,2013-07-01 00:01:00,
2013-06-30 20:11:00,72.0,49.0,30.00,North,358,4.0,10.0,45,0.00,,,0.00,,2013-07-01 00:11:00,
2013-06-30 20:22:00,72.0,49.0,30.00,NNW,345,4.0,10.0,45,0.00,,,0.00,,2013-07-01 00:22:00,
2013-06-30 20:33:00,72.0,49.0,30.00,NNW,339,5.0,10.0,44,0.00,,,0.00,,2013-07-01 00:33:00,
2013-06-30 20:42:00,72.0,50.0,30.01,NNW,327,3.0,10.0,46,0.00,,,0.00,,2013-07-01 00:42:00,
2013-06-30 20:52:00,71.0,50.0,30.01,North,351,4.0,10.0,47,0.00,,,0.00,,2013-07-01 00:52:00,
2013-06-30 21:01:00,71.0,51.0,30.01,NNW,335,3.0,6.0,49,0.00,,,0.00,,2013-07-01 01:01:00,
2013-06-30 21:11:00,71.0,51.0,30.01,NNW,335,3.0,6.0,49,0.00,,,0.00,,2013-07-01 01:11:00,
2013-06-30 21:22:00,70.0,53.0,30.01,NNW,335,2.0,6.0,54,0.00,,,0.00,,2013-07-01 01:22:00,
2013-06-30 21:33:00,70.0,53.0,30.01,NNW,335,2.0,6.0,54,0.00,,,0.00,,2013-07-01 01:33:00,
2013-06-30 21:42:00,65.0,49.0,30.01,NNW,335,0.0,3.0,57,0.00,,,0.00,,2013-07-01 01:42:00,
2013-06-30 21:52:00,64.0,49.0,30.02,NNW,335,0.0,1.0,59,0.00,,,0.00,,2013-07-01 01:52:00,
2013-06-30 22:02:00,64.0,49.0,30.02,NNW,335,0.0,1.0,59,0.00,,,0.00,,2013-07-01 02:02:00,
2013-06-30 22:12:00,63.0,49.0,30.02,NNW,335,0.0,1.0,60,0.00,,,0.00,,2013-07-01 02:12:00,
2013-06-30 22:22:00,63.0,49.0,30.02,NNW,335,0.0,1.0,61,0.00,,,0.00,,2013-07-01 02:22:00,
2013-06-30 22:33:00,62.0,49.0,30.03,NNW,335,0.0,0.0,62,0.00,,,0.00,,2013-07-01 02:33:00,
2013-06-30 22:44:00,61.0,50.0,30.03,NNW,334,0.0,2.0,66,0.00,,,0.00,,2013-07-01 02:44:00,
2013-06-30 22:53:00,60.0,50.0,30.04,NNW,335,0.0,0.0,69,0.00,,,0.00,,2013-07-01 02:53:00,
2013-06-30 23:01:00,60.0,50.0,30.04,NNW,335,0.0,0.0,70,0.00,,,0.00,,2013-07-01 03:01:00,
2013-06-30 23:11:00,60.0,50.0,30.04,NNW,335,0.0,0.0,70,0.00,,,0.00,,2013-07-01 03:11:00,
2013-06-30 23:23:00,60.0,50.0,30.04,NNW,335,0.0,0.0,70,0.00,,,0.00,,2013-07-01 03:23:00,
2013-06-30 23:33:00,59.0,52.0,30.04,NNW,335,1.0,3.0,78,0.00,,,0.00,,2013-07-01 03:33:00,
2013-06-30 23:43:00,59.0,52.0,30.04,NNW,335,1.0,3.0,78,0.00,,,0.00,,2013-07-01 03:43:00,
2013-06-30 23:52:00,58.0,52.0,30.05,NNW,335,0.0,1.0,79,0.00,,,0.00,,2013-07-01 03:52:00,